RH
38 52 57 19 13 12 12 17 18 19 28 34 37 38 37 36 35 36 39 40 41 42 41 39 38 37 36 38 72 73 58 39 52 64 68 74 76 80 72 68 74 85 84
40 44 46 28 12 9 11 18 18 18 31 36 36 36 36 35 34 34 36 37 40 42 43 45 48 47 43 36 57 78 72 62 44 62 70 81 86 77 72 72 80 80 81
42 40 33 34 10 7 12 23 22 20 32 35 37 36 35 34 33 32 31 33 35 36 40 48 60 65 60 44 40 74 83 76 48 56 68 79 78 84 84 82 83 80 78
40 43 25 27 18 8 10 26 30 22 29 32 35 38 37 34 32 30 31 31 36 39 49 69 76 82 84 57 45 63 88 89 53 55 64 76 81 88 91 93 85 86 73
38 40 24 24 21 12 10 21 26 30 28 31 33 35 33 31 30 28 26 27 34 44 71 74 76 73 88 73 55 64 84 96 67 53 66 73 77 93 100 98 96 79 77
34 38 32 30 22 18 18 15 21 19 22 26 28 28 29 29 28 26 27 29 36 66 64 72 67 62 79 90 78 76 85 95 78 60 56 63 71 94 97 97 91 79 53
30 34 34 32 29 15 24 21 17 18 18 22 24 25 26 28 31 33 40 56 64 63 62 51 55 59 74 94 93 92 97 100 94 85 86 80 88 100 98 99 74 57 51
31 27 27 35 32 21 18 26 18 18 18 21 23 27 29 34 38 52 59 56 63 55 44 47 56 54 69 83 89 96 100 97 94 100 95 96 99 98 96 90 65 65 57
30 29 28 32 36 29 21 26 18 16 19 22 27 29 30 40 51 64 45 57 57 40 43 59 54 61 62 65 72 96 96 85 88 94 98 98 95 95 82 72 72 64 59
28 29 18 18 32 38 31 24 25 15 20 24 24 28 31 48 58 61 49 49 38 38 39 53 56 55 63 60 68 81 81 82 99 94 87 97 94 89 75 71 61 56 48
24 14 14 15 21 34 45 39 25 25 28 22 24 30 41 56 60 43 38 37 40 49 53 56 56 62 58 59 56 67 74 99 96 92 95 94 86 68 61 56 46 42 46
29 21 23 20 16 23 39 51 48 25 19 20 25 55 54 64 47 38 37 46 47 49 54 52 57 59 59 48 53 63 83 94 89 88 83 72 60 60 54 42 41 48 53
24 26 22 25 22 24 31 47 56 59 38 28 42 55 60 61 44 39 35 41 49 49 48 52 56 53 39 38 46 57 88 92 85 75 58 51 48 41 43 40 40 44 54
25 22 22 23 24 23 28 47 48 62 67 59 62 59 68 58 48 36 35 47 44 37 44 49 39 34 26 35 45 74 76 73 66 58 46 38 28 34 34 38 50 56 51
20 22 22 22 23 30 35 46 55 72 81 83 82 84 67 46 35 37 43 33 25 33 36 28 25 28 34 37 41 46 52 59 58 49 36 26 26 31 32 32 34 42 39
16 15 20 23 25 29 30 50 74 86 91 97 98 99 74 66 36 40 24 25 39 33 23 32 35 32 34 41 44 47 54 50 45 42 28 29 29 31 30 28 31 33 28
26 23 22 30 26 45 64 75 65 89 98 99 64 65 70 51 30 19 25 38 31 24 33 36 31 33 38 41 45 42 39 39 40 28 24 27 32 30 24 23 23 25 15
33 37 36 57 77 80 79 53 54 51 84 96 67 50 48 27 27 35 40 39 33 33 34 31 36 33 31 38 38 37 34 30 24 22 23 30 26 19 18 15 18 18 8
74 96 98 98 96 95 96 76 66 59 88 72 41 34 28 24 31 36 40 40 40 42 39 34 36 30 34 37 31 32 23 18 17 19 25 23 17 11 10 13 17 9 8
88 88 97 96 57 68 75 56 66 73 59 35 33 34 28 35 21 20 34 43 49 42 39 29 26 28 34 24 20 18 14 12 14 17 16 15 12 10 10 14 10 8 9
82 80 74 48 52 59 60 55 48 37 42 37 31 26 27 47 40 48 52 51 40 38 36 26 24 28 27 27 24 16 13 11 12 13 12 13 12 11 10 11 8 8 9
73 57 44 44 48 45 39 37 45 55 48 41 39 43 44 37 58 51 69 61 49 42 36 40 33 23 26 31 22 15 13 12 13 15 13 16 14 11 11 9 8 8 9
62 60 59 63 70 71 75 74 73 68 79 76 53 61 58 54 62 71 63 62 54 56 76 59 44 40 34 28 19 13 12 10 12 12 13 17 16 11 10 7 7 9 10
74 70 63 68 70 69 62 68 93 98 90 74 94 100 97 78 79 68 67 84 79 60 78 62 74 75 87 88 27 18 12 10 11 11 12 13 13 10 8 7 7 9 10
62 52 45 52 65 71 80 78 88 85 75 80 85 80 88 93 92 76 86 90 77 68 70 67 67 57 75 36 19 21 13 8 10 10 10 12 11 11 8 6 7 10 11
84 95 82 78 80 82 93 92 87 79 84 94 96 96 98 89 87 93 96 89 73 79 79 63 57 47 36 36 25 18 11 9 9 11 11 10 11 11 8 6 6 10 12
Wind_Speed
24 22 22 26 28 27 26 22 22 25 28 28 24 20 17 15 16 16 16 16 17 19 21 23 26 24 20 18 15 16 12 14 13 12 10 12 15 16 17 18 20 22 25
24 24 25 24 27 29 28 23 25 28 30 27 25 23 20 18 18 18 18 20 20 21 22 24 25 28 24 21 18 18 14 16 16 17 16 13 16 20 19 20 21 25 28
28 28 29 28 26 29 29 25 26 30 31 29 26 24 22 21 20 20 20 21 22 23 25 26 24 27 28 23 21 19 20 19 19 18 18 14 18 21 23 25 27 27 30
31 32 34 32 28 26 30 29 26 30 31 29 27 23 22 21 21 21 21 21 23 24 25 25 25 25 25 24 24 23 22 23 22 22 21 22 23 24 27 30 33 31 29
32 36 37 34 31 29 33 33 31 30 29 29 28 26 24 23 21 21 21 22 24 24 24 25 26 27 24 22 25 24 24 24 23 26 27 30 30 30 32 32 31 32 28
35 35 35 36 35 34 32 36 36 32 31 30 30 28 26 25 23 22 23 25 27 24 23 28 30 28 24 20 24 26 28 26 27 27 33 33 35 36 33 33 30 31 33
34 37 34 34 36 37 37 35 39 38 35 35 33 31 29 27 25 22 24 26 29 26 26 30 31 29 27 24 25 28 27 28 33 32 34 33 35 34 27 30 30 34 35
38 36 33 32 35 39 41 38 39 41 39 37 35 32 30 27 24 24 24 24 25 28 29 33 32 31 30 26 24 24 25 27 29 27 29 30 25 23 31 30 31 36 38
42 36 35 31 33 37 41 42 40 42 41 39 36 34 31 26 25 24 23 25 28 28 30 34 32 31 28 24 22 23 26 24 27 25 24 23 26 27 29 32 34 40 42
39 38 35 34 35 38 38 43 42 43 42 40 38 36 31 30 27 22 27 29 27 32 36 32 30 26 23 20 21 23 22 24 24 25 25 27 27 27 33 37 40 40 39
34 35 35 37 35 37 39 39 46 44 44 43 40 36 34 31 24 18 30 31 31 34 33 30 25 22 21 20 21 22 22 25 24 23 25 27 30 31 35 35 34 34 34
38 40 40 36 37 38 39 40 38 46 46 46 42 35 34 29 18 23 37 32 34 35 32 26 22 20 18 19 21 20 21 20 20 21 25 26 29 32 31 30 29 30 32
45 47 45 39 45 40 39 42 43 40 45 46 44 40 35 28 23 25 33 33 34 31 25 21 20 18 19 21 22 20 17 19 21 20 24 26 26 25 25 26 27 29 30
46 49 52 50 47 51 43 45 47 48 43 43 43 40 31 26 21 24 34 33 30 23 19 17 18 19 19 20 20 18 19 19 19 22 23 24 22 22 25 27 25 25 26
49 54 57 53 56 53 51 50 50 48 45 44 40 37 27 23 23 34 33 27 21 19 18 17 18 17 17 17 15 14 16 19 21 22 22 21 21 23 25 27 27 27 28
54 60 59 60 58 54 58 50 42 43 44 40 40 25 18 22 29 30 24 20 17 16 15 15 14 14 14 13 13 16 19 21 21 21 22 21 22 23 25 26 26 27 27
60 65 62 59 58 57 46 47 49 45 33 16 28 19 21 21 27 23 20 18 17 14 13 13 12 13 12 13 16 18 19 20 20 20 19 20 21 22 24 25 25 24 24
59 59 54 57 56 49 43 38 38 48 52 30 27 23 27 25 23 19 19 19 15 13 13 12 12 11 13 15 16 17 18 17 18 18 19 20 20 21 23 23 22 22 23
52 36 27 48 36 17 17 24 29 28 28 28 23 25 24 20 19 20 20 17 14 13 12 10 11 13 16 15 15 15 16 17 18 18 18 20 20 21 21 19 20 22 22
56 23 20 40 26 29 29 22 27 26 27 26 23 22 19 16 17 19 17 14 14 12 10 11 12 14 15 14 15 16 17 18 18 17 18 20 21 21 20 18 20 19 21
37 39 18 16 20 22 22 20 20 15 15 16 19 16 17 19 20 17 14 12 10 10 12 14 14 14 14 14 16 19 18 18 18 17 18 19 20 19 18 18 19 20 20
23 22 21 20 19 16 14 14 13 14 16 19 17 17 13 13 13 10 11 10 11 12 13 15 17 16 16 16 18 18 17 20 20 18 17 18 19 18 17 17 18 18 20
11 12 12 10 9 10 12 14 15 16 14 11 12 11 10 13 13 8 8 12 14 17 18 18 17 16 14 17 18 18 18 20 20 17 17 18 18 17 16 16 17 17 19
10 11 10 12 15 10 11 12 12 12 10 12 15 17 15 15 14 11 13 15 19 22 22 20 18 19 13 21 20 18 17 18 20 17 17 18 17 16 15 16 16 16 17
4 9 14 13 11 12 13 13 12 12 12 14 17 16 12 15 17 17 17 20 22 21 20 21 21 19 17 21 18 18 20 17 18 17 18 18 16 14 14 15 15 15 16
30 16 16 18 17 11 14 14 13 12 13 14 14 11 12 16 17 19 22 22 22 22 21 17 15 15 16 18 19 19 20 20 17 16 16 18 17 15 14 14 14 15 15
Wind_Direction
223 231 241 238 230 227 227 218 208 198 192 196 197 203 210 219 236 249 264 278 290 297 303 307 310 314 317 323 336 330 297 291 285 289 283 284 282 286 297 295 289 294 293
234 232 233 236 227 219 219 213 210 204 201 201 202 209 218 228 241 255 264 277 286 292 295 300 304 305 309 309 313 324 300 287 276 277 283 270 279 288 286 293 287 292 293
234 230 229 232 227 216 214 210 209 207 204 207 210 215 223 233 242 252 260 272 283 292 298 301 301 299 304 303 305 309 307 290 274 271 272 265 285 281 287 294 295 292 293
232 231 230 229 227 219 214 212 209 210 210 212 215 218 227 237 248 258 267 277 284 291 294 295 299 296 299 295 294 300 301 292 274 266 268 260 267 272 274 285 292 294 296
232 229 228 229 229 221 215 216 215 216 216 218 223 225 235 245 255 265 272 277 282 286 287 289 290 293 292 284 282 291 291 285 271 266 267 266 272 282 278 283 293 296 292
238 231 228 227 226 223 219 219 219 221 226 230 234 240 246 254 262 269 275 279 279 282 281 283 286 290 292 276 272 278 282 280 267 265 267 272 275 280 282 284 294 296 295
237 229 226 227 225 226 222 223 224 225 227 231 237 244 251 257 263 270 273 276 282 277 277 282 287 291 294 279 271 271 275 279 271 284 272 274 274 290 283 289 292 293 296
232 226 225 225 225 226 224 227 226 227 227 232 238 244 250 255 262 262 266 274 274 272 277 283 290 295 293 279 272 275 277 281 285 279 285 286 284 283 288 287 290 293 298
230 226 226 227 227 229 226 226 228 228 229 233 238 243 247 250 253 254 268 273 270 265 274 281 290 287 282 278 281 277 278 278 283 280 286 282 289 288 287 290 295 297 298
228 233 228 231 231 234 233 228 229 230 232 235 240 243 243 244 249 254 277 270 264 273 281 285 282 280 276 278 280 278 270 273 266 270 281 281 287 284 291 294 296 298 296
228 231 228 237 232 234 234 233 230 232 233 237 239 240 238 240 236 247 272 263 270 278 284 278 274 269 275 277 276 269 262 266 268 272 278 284 291 293 294 297 298 296 296
231 234 239 239 238 235 232 231 233 231 233 236 237 229 231 232 251 279 266 260 269 277 273 267 269 277 277 278 276 271 263 267 271 279 289 291 294 295 297 298 296 296 297
228 235 234 242 251 244 237 232 231 233 232 231 230 230 230 226 257 264 257 258 270 265 262 266 276 275 279 280 275 274 267 268 286 287 293 295 294 295 297 297 297 299 300
243 236 240 238 241 238 244 246 235 233 233 229 230 231 218 235 241 252 255 260 259 264 265 268 271 276 278 277 274 272 273 280 287 290 290 290 292 296 305 306 303 297 296
248 249 248 252 247 243 245 242 237 233 233 236 233 227 221 247 262 249 254 259 266 262 264 272 273 272 270 274 274 276 280 284 286 286 290 295 298 301 303 304 303 303 305
252 254 248 246 243 239 239 240 244 237 238 230 219 218 221 234 242 249 254 254 247 256 267 260 263 267 269 276 280 279 280 281 284 289 296 300 302 304 303 301 300 302 307
252 251 247 247 247 240 237 235 224 219 244 236 228 238 224 230 247 249 251 247 256 261 257 261 263 267 272 278 277 277 276 279 284 289 298 298 298 300 299 299 302 306 308
253 255 240 244 236 221 224 243 257 282 264 239 248 207 225 228 232 243 244 252 260 247 253 256 263 273 278 275 272 267 272 281 285 290 291 294 299 299 299 302 303 305 309
237 218 236 236 210 196 220 237 246 238 181 197 204 215 220 227 245 243 249 248 243 249 246 257 267 275 274 265 264 269 280 282 287 291 293 299 301 300 302 305 305 307 313
216 178 217 233 275 234 211 175 175 164 178 197 203 208 221 237 251 251 239 236 236 244 253 258 266 268 259 266 276 282 283 287 292 295 298 300 303 306 308 304 301 307 313
204 221 186 172 150 160 176 173 173 188 207 208 206 216 232 248 235 241 228 227 239 248 260 267 263 262 268 277 284 284 283 287 294 295 295 297 299 301 299 297 302 308 314
139 157 160 155 154 159 175 193 199 187 194 207 231 240 233 223 216 219 226 241 255 265 272 275 274 271 275 273 279 281 284 286 287 288 290 290 292 295 296 298 301 310 318
158 161 167 179 191 202 205 213 219 228 222 221 230 231 213 206 210 247 246 260 263 273 290 295 279 286 286 280 273 274 275 280 285 287 283 282 285 289 293 291 299 311 318
228 230 217 219 233 207 204 215 201 194 203 208 205 213 229 224 223 265 261 266 280 286 279 286 280 293 277 278 283 278 278 275 278 282 277 275 279 283 286 287 297 307 313
237 231 189 187 193 205 209 210 217 228 239 226 230 213 232 226 234 271 270 276 277 279 277 280 281 276 263 281 272 279 281 279 273 274 275 275 272 275 278 283 292 300 307
253 218 242 240 251 223 232 234 239 244 238 233 250 237 233 245 257 266 264 262 268 262 277 277 274 278 277 276 275 277 277 275 270 271 274 276 275 273 269 271 280 290 301